星链-5933 (STARLINK-5933 )

导读

STARLINK-5933是美国SpaceX星链互联网星座的通信卫星,于2023年3月17日在美国范登堡空军基地由猎鹰9号火箭发射升空,属于星链Group 4-16批次任务卫星,它运行在近地轨道,作为星链星座的移动基站,为全球提供高速宽带互联网接入服务,支撑星链全球组网覆盖,服务民用通信与潜在特定领域需求。

Basic Information
目录编号:
55961
目录名称:
STARLINK-5933
国际标识:
2023-037AZ
轨道中心:
EARTH
卫星名称:
星链-5933
卫星全名:
星链-5933 (STARLINK-5933 )
卫星状态:
在轨 (已飞行1268 天)
发射日期:
2023-03-17 UTC
国别 :
美国 (US)
星等 :
--
Orbit Information
数据来源 国际轨道数据
星历时间: 2026-09-05T12:41:48+0800
13小时前
查看轨道信息
半长轴: 6950.185km
偏心率: 0.0003028
轨道倾角: 70.001°
近地点辐角 268.091°
升交点赤经 171.769°
平近点角 91.991°
近地点: 569.943km
远地点: 574.153km
周期: 96.107分钟
每日圈数: 14.983328
Detailed Information
固有亮度:
5
最大亮度:
2.5
卫星平台:
Starlink v1.5
覆盖范围:
全球
运营商:
太空探索技术公司
运营商所在国:
美国
制造商(研发单位):
太空探索技术公司
制造商所在国:
美国
使用方式:
暂无
Satellite Introduction
星链(Starlink)计划是由太空探索技术公司(SpaceX)提出的一个巨型低轨卫星互联网星座项目,计划在2019年至2024年间在太空搭建由约1.2万颗卫星组成的“星链”网络,其中1584颗将部署在地球上空550千米处的近地轨道,并从2020年开始工作。该卫星仍在工作。
2D Orbit Map
3D Orbit Map
Orbit Altitude Analysis Chart
Orbit Inclination Analysis Chart
Orbit Comprehensive Analysis Chart
View Comprehensive Chart
Conjunction Data List
Event ID Objects TCA Miss Dist (km) Collision Risk Probability Collision Risk Index (CRI) Action
CDM_260907-063705-596106-458623
2026-09-07T
06:37:25+0000
1.008 km
极远距离
2.65502E-5 中风险 0.63